User: anonymous   Login
Location: *
(44.1392°N, 4.8079°E)
Time: 07:24:27
(UTC+00:00)
Language:

Cosmos 1763 Rocket - Orbit

View from above orbital plane
View from above orbital plane
View from above satellite
View from above satellite

Ground track
Ground track

The orbit data is extracted from the following two-line orbital elements,

1 16864U 86052B   21267.91588025  .00000031  00000-0  17793-4 0  9997
2 16864  74.0272  86.1303 0032718 161.6528 198.5816 14.40644198847402
Epoch (UTC): 24 September 2021 21:58:52
Eccentricity: 0.0032718
inclination: 74.0272°
perigee height: 733 km
apogee height: 780 km
right ascension of ascending node: 86.1303°
argument of perigee: 161.6528°
revolutions per day: 14.40644198
mean anomaly at epoch: 198.5816°
orbit number at epoch: 84740

The dashed part of the orbit path shows where the satellite is in the earth's shadow,  

DLR